User: anonymous   Login
Location: NJAA Observatory
(40.6819°N, 74.8979°W)
Time: 01:29:23
(UTC-04:00)
Language:

ALOS - Orbit

View from above orbital plane
View from above orbital plane
View from above satellite
View from above satellite

Ground track
Ground track

The orbit data is extracted from the following two-line orbital elements,

1 28931U 06002A   16126.78828759  .00000303  00000-0  68997-4 0  9990
2 28931  97.8886 167.4922 0002188 116.4731 243.6687 14.62177344547926
Epoch (UTC): 05 May 2016 18:55:08
Eccentricity: 0.0002188
inclination: 97.8886°
perigee height: 684 km
apogee height: 688 km
right ascension of ascending node: 167.4922°
argument of perigee: 116.4731°
revolutions per day: 14.62177344
mean anomaly at epoch: 243.6687°
orbit number at epoch: 54792

The dashed part of the orbit path shows where the satellite is in the earth's shadow,  

DLR